Flag for U.S.A. Weather past 2 weeks in Chula Vista, California, U.S.A.

Now
69 °F

Sunny.


Feels Like: 69 °F
Forecast: 50 / 71 °F
Wind: 10 mph from West

Location: Brown Field Municipal Airport

Current Time: Jan 27, 2015 at 4:06:00 PM

Latest Report: Jan 27, 2015 at 2:53 PM


Visibility: 10 mi

Pressure: 30.13 "Hg

Humidity: 44%

Dew point: 46 °F

Location of Chula VistaLocation

Historic Weather in Chula Vista — Graph

°F

Chula Vista temperature yesterday

Maximum temperature yesterday: 76 °F (at 10:53 AM)
Minimum temperature yesterday: 52 °F (at 11:53 PM)
Average temperature yesterday: 64 °F

Past Weeks' High & Low Weather Summary

 TemperatureHumidityPressure
High77 °F (Jan 25, 12:53 PM)100% (Jan 20, 2:53 AM)30.23 "Hg (Jan 20, 2:53 AM)
Low43 °F (Jan 16, 6:53 AM)7% (Jan 23, 11:53 AM)29.93 "Hg (Jan 20, 4:53 PM)
Average59 °F53%30.09 "Hg
* Reported Jan 12 2:53 PM — Jan 27 2:53 PM, Chula Vista, Weather by CustomWeather, © 2014

Note: Actual official high and low records may vary slightly from our data, if they occured in-between our weather recording intervals... More about our weather records

Advertising

Chula Vista weather history for previous 24 hours

 ConditionsComfort  
Time TempWeatherWind HumidityBarometerVisibility
2:53 PM
Jan 27
69 °FSunny.10 mph44%30.13 "Hg10 mi
1:53 PM70 °FSunny.9 mph46%30.12 "Hg10 mi
12:53 PM72 °FSunny.10 mph41%30.12 "Hg10 mi
11:53 AM72 °FSunny.5 mph41%30.14 "Hg10 mi
10:53 AM70 °FSunny.3 mph42%30.17 "Hg10 mi
9:53 AM66 °FSunny.5 mph52%30.18 "Hg10 mi
8:53 AM61 °FSunny.5 mph65%30.17 "Hg10 mi
7:53 AM57 °FSunny.7 mph74%30.17 "Hg10 mi
6:53 AM54 °FPartly sunny.7 mph77%30.16 "Hg10 mi
5:53 AM54 °FPassing clouds.6 mph77%30.14 "Hg10 mi
4:53 AM55 °FOvercast.8 mph80%30.12 "Hg10 mi
3:53 AM51 °FPassing clouds.7 mph86%30.11 "Hg10 mi
2:53 AM54 °FPassing clouds.5 mph80%30.11 "Hg10 mi
1:53 AM53 °FPassing clouds.5 mph86%30.10 "Hg10 mi
12:53 AM52 °FPartly cloudy.5 mph89%30.09 "Hg10 mi
11:53 PM
Jan 26
52 °FPassing clouds.3 mph86%30.09 "Hg8 mi
10:53 PM53 °FPartly cloudy.6 mph83%30.07 "Hg10 mi
9:53 PM57 °FPassing clouds.No wind74%30.07 "Hg10 mi
8:53 PM56 °FClear.6 mph77%30.06 "Hg10 mi
7:53 PM58 °FClear.7 mph75%30.05 "Hg10 mi
6:53 PM58 °FOvercast.8 mph75%30.05 "Hg10 mi
5:53 PM59 °FPartly cloudy.No wind72%30.03 "Hg10 mi
4:53 PM61 °FMostly cloudy.No wind65%30.02 "Hg10 mi
Weather by CustomWeather, © 2014

See weather overviewHow to use our weather pages